This demonstration page uses our WeatherBlox Daily Observations layout. Learn more.

Left ArrowRight Arrow

47.50024, -111.30081

Hourly Observations for May 12, 2021

Temp ( °F °C ) Dew Point ( °F °C ) Humidity (%) Winds ( mph kmh ) Pressure ( in mb ) Visibility ( mi km ) Precip ( " mm )
12:53 am 00:53 Mostly Cloudy 40 4.4 36 2.2 86 86 NE 5 7 30.22 1024 10 16 0.00 0.00
1:53 am 01:53 Mostly Cloudy 40 4.4 36 2.2 86 86 S 3 6 30.23 1024 10 16 0.00 0.00
2:53 am 02:53 Cloudy 42 5.6 38 3.3 85 85 S 8 13 30.20 1023 10 16 0.00 0.00
3:53 am 03:53 Mostly Cloudy 36 2.2 34 1.1 93 93 WSW 8 13 30.22 1024 10 16 0.00 0.00
4:53 am 04:53 Mostly Clear 36 2.2 35 1.7 97 97 W 3 6 30.26 1025 10 16 0.00 0.00
5:53 am 05:53 Sunny 34 1.1 33 0.6 97 97 SSW 7 11 30.26 1025 10 16 0.00 0.00
6:53 am 06:53 Sunny 37 2.8 35 1.7 93 93 SW 7 11 30.25 1024 10 16 0.00 0.00
7:53 am 07:53 Sunny 41 5 37 2.8 86 86 SW 8 13 30.26 1025 10 16 0.00 0.00
8:53 am 08:53 Sunny 44 6.7 39 3.9 83 83 SW 7 11 30.27 1025 10 16 0.00 0.00
9:53 am 09:53 Sunny 49 9.4 39 3.9 69 69 W 5 7 30.24 1024 10 16 0.00 0.00
10:19 am 10:19 Mostly Sunny 50 10 38 3.3 63 63 SSW 6 9 30.18 1022 10 16 0.00 0.00
10:53 am 10:53 Mostly Sunny 53 11.7 38 3.3 57 57 VRB 5 7 30.23 1024 N/A 0.00 0.00
10:55 am 10:55 Sunny 53 11.7 37 2.8 55 55 NW 3 6 30.15 1021 10 16 0.00 0.00
11:53 am 11:53 Mostly Cloudy 55 12.8 36 2.2 49 49 SSW 5 7 30.23 1024 10 16 0.00 0.00
12:53 pm 12:53 Partly Cloudy 57 13.9 33 0.6 41 41 VRB 5 7 30.21 1023 10 16 0.00 0.00
1:53 pm 13:53 Sunny 58 14.4 29 -1.7 33 33 VRB 3 6 30.19 1022 10 16 0.00 0.00
2:53 pm 14:53 Sunny 60 15.6 31 -0.6 33 33 VRB 5 7 30.16 1022 10 16 0.00 0.00
3:53 pm 15:53 Sunny 62 16.7 29 -1.7 29 29 VRB 7 11 30.16 1021 10 16 0.00 0.00
4:53 pm 16:53 Sunny 62 16.7 29 -1.7 29 29 N 5 7 30.13 1020 10 16 0.00 0.00
5:53 pm 17:53 Sunny 63 17.2 31 -0.6 30 30 NE 7 11 30.12 1020 10 16 0.00 0.00
6:53 pm 18:53 Sunny 61 16.1 31 -0.6 32 32 E 7 11 30.11 1020 10 16 0.00 0.00
7:53 pm 19:53 Sunny 58 14.4 31 -0.6 36 36 E 10 17 30.10 1019 10 16 0.00 0.00
8:53 pm 20:53 Clear 56 13.3 33 0.6 42 42 E 8 13 30.11 1020 10 16 0.00 0.00
9:53 pm 21:53 Mostly Clear 54 12.2 34 1.1 47 47 E 8 13 30.10 1019 10 16 0.00 0.00
10:53 pm 22:53 Cloudy 53 11.7 34 1.1 48 48 E 9 15 30.09 1019 10 16 0.00 0.00
11:53 pm 23:53 Cloudy 52 11.1 36 2.2 55 55 E 8 13 30.07 1018 10 16 0.00 0.00

Powered by AerisWeather